Starlink 5214

operational
NORAD ID: 54762 Int'l Des: 2022-175 Owner: SPXS Country: US Constellation: starlink
LEOCIRCULAR

关于 Starlink 5214

正在加载描述...

实时位置

正在加载3D地球...

即将过境

高度历史

Altitude vs Time

uPlot chart will show altitude changes over time

两行轨道根数

1 54762U 22175E 25304.16153250 .00000552 00000-0 52733-4 0 9994
2 54762 53.2175 265.6702 0001415 82.0651 278.0502 15.08846773160369
Epoch: Oct 31, 2025 • Age: 15 hours

当前状态

高度 541.0 km
速度 7.60 km/s
星下点 30.94°N, 94.04°E
发射日期 Dec 17, 2022
运行时间 2.8 years
类型 internet

技术详情

分类 Payload
质量 305.00 kg
干质量 290.00 kg
总质量 305.00 kg
长度 0.20 m
直径 2.80 m
跨度 9.00 m
形状 Box + pan
制造商 SPXS
平台类型 Starlink
阶段状态 In Orbit
所有者/国家 SPXS/US

大型星座

Loading constellations...